Theta_e
316 317 318 318 319 319 319 318 318 317 318 318 319 319 319 319 319 319 319 319 319 319 319 318 316 315 315 322 318 324 324 325 326 327 329 330 332 337 340 338 339 339 337 344 349 349 345
320 319 319 320 320 320 320 320 319 319 318 319 319 319 319 320 320 319 319 319 319 319 318 316 315 313 324 319 317 318 318 322 328 329 332 331 333 336 338 337 337 339 335 339 349 348 347
321 321 321 321 321 321 320 320 319 319 319 319 319 319 319 319 320 320 319 319 319 319 316 315 314 316 325 319 320 324 322 325 327 330 330 331 333 332 330 335 337 338 335 333 346 346 348
318 319 319 320 320 320 320 319 319 319 319 319 319 319 319 319 319 320 320 319 319 319 316 314 313 320 319 317 320 321 321 322 322 325 326 327 329 329 332 331 334 337 337 335 336 346 348
315 315 316 317 317 318 319 319 319 319 319 319 319 319 319 319 319 320 321 320 320 320 317 313 317 319 319 324 325 322 322 322 322 322 324 327 328 330 329 331 333 336 338 341 340 340 346
318 318 317 317 316 317 318 319 319 318 319 319 319 319 319 319 319 319 321 320 324 322 318 319 322 318 319 323 323 323 322 322 319 319 323 325 324 329 328 330 336 338 339 340 340 339 343
317 318 317 318 318 318 316 316 318 318 318 318 319 319 319 319 319 319 320 321 321 319 321 322 318 318 318 322 323 321 322 320 318 318 319 321 325 328 331 332 334 335 338 340 340 340 342
318 318 317 317 317 317 318 316 316 316 317 318 318 318 319 319 319 320 322 320 324 325 322 319 323 321 322 322 324 318 320 316 316 316 319 321 325 327 330 332 334 335 338 338 341 341 337
317 318 317 317 317 317 317 316 316 316 316 316 318 318 318 318 319 324 321 322 325 325 321 321 321 322 323 323 324 317 316 314 316 316 318 320 323 326 330 332 332 332 338 342 342 340 337
316 316 317 316 316 317 317 316 316 316 316 316 317 318 318 318 322 320 322 323 324 325 321 323 322 322 323 324 322 318 318 317 317 315 315 319 321 325 328 331 331 331 336 342 342 340 337
314 315 315 315 315 316 316 316 316 315 315 316 317 318 317 317 319 321 322 323 324 322 329 327 322 323 320 322 320 320 318 317 317 318 317 320 324 324 327 328 330 333 338 339 339 336 333
314 314 314 315 315 315 315 314 314 314 314 315 317 318 317 317 318 320 322 323 324 324 328 327 322 322 321 320 321 320 320 318 317 317 318 319 321 323 324 326 331 335 338 336 334 332 337
312 312 312 313 312 314 315 315 314 314 313 315 317 318 317 316 319 322 321 321 323 329 327 327 323 319 319 319 320 320 320 318 316 317 316 316 318 320 324 326 326 336 334 338 339 336 339
310 309 310 310 311 311 312 313 311 313 314 315 317 317 318 319 320 321 323 322 332 330 328 326 326 321 323 319 319 320 318 315 317 316 315 317 318 323 325 324 325 329 334 340 342 341 338
309 309 309 309 309 310 310 310 310 312 314 315 317 319 320 321 322 322 319 326 327 327 327 326 325 323 320 320 320 318 316 315 316 314 316 317 321 323 325 325 325 326 331 335 336 334 333
309 309 309 309 309 309 309 310 311 312 314 317 318 317 321 324 325 322 321 325 325 326 325 325 326 326 326 325 322 317 316 317 319 316 314 316 317 319 322 324 324 325 327 331 331 337 340
309 309 309 309 309 310 309 310 310 313 315 319 320 322 328 325 325 319 324 323 324 324 324 324 325 324 325 326 323 317 317 318 319 320 314 314 316 320 324 323 324 327 332 331 330 332 336
309 309 309 309 309 309 309 310 310 313 315 318 319 326 326 326 324 322 325 325 322 323 324 323 324 323 325 324 323 324 320 318 319 319 318 315 314 317 319 321 324 325 329 330 333 334 331
308 309 308 309 309 309 309 310 310 312 315 315 317 322 329 326 328 326 324 326 325 326 325 324 325 324 323 323 323 324 327 327 329 318 317 317 315 318 319 318 325 330 328 328 328 329 334
308 309 309 309 309 309 309 310 310 312 315 315 318 328 325 323 323 329 329 329 328 328 328 327 326 324 324 322 322 328 340 337 335 335 339 324 313 316 319 320 333 332 331 331 324 328 332
307 308 308 310 309 309 310 310 310 313 316 315 317 325 327 329 328 328 328 327 332 331 327 325 324 325 324 323 327 341 339 337 334 338 325 314 317 318 320 323 334 334 332 332 332 333 336
307 307 308 310 310 310 310 310 310 313 315 316 319 326 324 327 326 328 329 333 332 331 334 335 328 329 322 321 331 336 338 336 336 334 333 327 317 320 323 333 333 334 335 333 332 333 332
307 307 308 309 310 310 310 310 310 312 315 319 323 323 322 326 327 327 328 331 332 334 335 335 335 334 323 328 335 333 332 330 333 336 336 335 329 321 320 321 324 326 331 333 332 336 338
307 307 307 309 311 310 310 310 310 311 314 316 318 320 322 328 328 331 331 331 334 334 336 335 335 335 335 331 331 333 335 337 335 333 331 335 332 320 325 332 334 328 333 334 335 334 336
307 307 308 310 310 311 310 310 310 310 312 315 316 319 322 326 327 329 328 329 332 331 335 337 334 331 328 333 334 336 337 335 337 336 334 331 323 325 329 333 333 334 334 335 336 336 343
307 307 308 310 310 310 310 311 310 310 311 314 315 318 321 326 324 325 326 327 333 331 332 334 332 329 333 331 332 344 344 343 343 339 332 333 332 331 326 333 336 331 339 340 336 344 346
306 307 308 309 309 310 310 310 310 310 311 315 316 318 322 325 320 322 326 327 326 328 329 332 331 333 335 333 341 345 345 339 340 342 341 339 337 339 329 330 330 342 341 342 343 353 349
306 306 307 309 309 310 310 310 310 310 314 316 316 317 321 322 319 320 321 322 323 326 329 330 335 332 338 340 339 338 341 341 340 339 339 340 346 349 345 331 339 339 342 340 344 344 353
306 306 308 309 309 310 310 310 310 311 315 317 316 317 317 319 319 320 319 319 320 321 323 324 330 331 338 338 336 335 337 335 333 337 333 345 339 342 344 344 336 336 341 340 342 346 344
Wind_Speed
14 15 16 17 17 18 18 20 21 21 22 23 24 25 26 26 26 26 27 27 28 27 19 13 11 10 4 2 9 7 2 6 7 8 4 2 5 2 5 8 11 4 4 11 15 11 11
14 15 15 17 18 19 19 20 20 21 22 23 25 26 27 27 27 27 28 28 28 25 16 13 8 7 2 4 10 16 17 15 11 7 4 4 7 2 7 6 6 6 9 12 14 12 12
15 15 15 16 17 18 19 20 20 21 22 23 25 27 28 28 29 28 29 28 28 20 12 11 7 3 1 15 4 2 5 16 14 13 4 18 12 1 6 9 3 8 7 7 20 18 8
15 15 16 16 17 17 18 19 20 21 22 23 26 27 28 30 30 29 30 29 29 14 9 7 4 1 7 12 17 15 14 14 13 16 16 18 17 4 2 6 9 7 3 4 4 18 6
15 16 17 18 17 18 19 20 20 22 23 24 25 27 29 30 31 30 32 31 24 8 5 4 2 1 10 13 8 12 12 8 14 16 15 15 4 1 6 4 6 6 4 3 3 14 10
15 16 17 19 18 19 19 20 21 22 24 25 26 27 29 31 31 30 32 26 9 1 2 1 3 4 7 3 5 12 13 12 4 4 7 4 5 2 5 5 4 3 6 3 1 6 4
15 17 17 18 18 19 19 20 21 22 24 26 27 28 30 32 30 32 28 5 5 4 2 6 7 6 9 7 18 9 18 6 2 5 1 5 3 5 10 8 7 7 8 3 5 7 4
16 16 17 18 18 19 19 20 21 23 24 27 27 29 31 33 30 23 7 2 6 3 9 11 14 12 23 3 6 8 14 5 4 5 0 4 5 11 9 9 7 12 7 6 7 13 3
16 16 17 17 18 18 19 20 22 23 26 27 27 29 31 34 27 2 20 13 23 26 4 8 9 8 6 10 8 10 8 7 4 5 5 6 8 8 9 12 9 10 3 1 5 10 4
16 16 17 17 18 19 20 22 23 24 27 27 26 28 30 36 3 21 13 19 30 17 4 7 3 7 6 6 6 14 12 8 3 10 8 6 13 11 9 9 6 7 8 4 4 10 4
17 17 18 19 19 19 20 22 24 25 28 27 27 28 29 27 18 8 15 24 28 4 3 3 3 9 8 9 2 6 8 4 9 7 7 9 4 6 8 16 5 12 7 7 3 5 4
15 16 16 19 19 20 20 22 24 25 28 29 29 28 31 13 18 16 17 28 5 5 4 3 6 8 7 4 5 4 3 3 6 6 2 9 5 6 10 15 7 8 1 7 4 3 3
16 16 18 19 20 20 21 23 25 27 28 29 30 29 30 22 6 5 23 5 4 3 6 2 3 7 5 7 5 5 4 3 7 3 5 7 10 8 6 7 1 3 5 2 4 4 5
14 17 17 18 19 20 21 23 25 26 28 31 33 33 24 23 18 9 6 5 2 4 6 5 1 6 7 7 6 5 4 4 4 4 3 4 9 6 6 9 10 7 10 6 5 4 3
15 16 16 17 18 18 20 23 23 25 29 31 36 21 15 14 8 9 5 3 6 6 3 11 10 5 3 6 5 6 8 9 9 10 9 4 8 6 6 4 9 5 4 10 7 5 4
15 16 17 18 19 20 20 22 21 24 29 29 21 11 9 6 12 11 4 5 5 3 8 4 2 1 2 2 2 6 7 8 10 11 7 7 4 5 10 6 5 7 6 3 2 4 1
13 15 16 17 18 19 20 21 20 24 29 16 6 4 6 22 18 5 3 6 6 6 7 7 11 6 4 2 2 2 7 7 11 10 10 7 6 20 2 4 9 2 1 5 5 5 6
12 15 15 16 17 17 19 21 19 22 29 11 7 2 11 29 3 2 3 5 5 8 12 7 6 7 3 3 4 3 7 10 10 10 10 12 6 7 12 6 6 8 10 8 5 5 2
11 14 14 15 16 17 17 19 17 17 19 10 4 3 3 14 2 3 6 8 6 18 15 5 6 7 4 4 4 2 6 4 7 4 10 6 3 5 10 8 5 2 3 2 2 5 5
10 13 13 14 15 15 16 16 17 13 14 8 3 3 4 2 1 2 3 9 7 7 11 8 11 6 3 6 1 4 7 4 9 5 7 9 4 7 8 8 4 0 4 5 5 4 5
11 12 12 12 14 13 14 14 16 12 11 6 1 4 1 3 4 5 2 6 14 12 3 6 7 5 5 3 5 3 3 8 7 11 8 4 6 6 7 8 3 5 6 7 5 4 2
12 13 11 11 12 12 12 12 14 11 12 0 1 3 4 4 4 4 3 3 6 10 3 9 9 18 7 6 8 5 2 1 2 7 10 6 5 1 3 5 5 4 9 8 6 2 7
13 12 11 10 11 11 10 10 12 9 8 3 5 6 2 5 5 4 3 8 12 10 1 7 13 12 2 5 6 7 6 3 4 2 3 3 3 5 6 3 3 5 8 6 4 0 7
13 13 11 10 8 9 9 8 9 6 5 3 3 4 2 4 3 4 7 9 13 8 4 6 13 10 5 7 3 2 4 4 1 2 2 2 4 3 4 2 3 7 5 5 7 6 6
12 11 9 9 8 7 8 8 8 6 5 5 5 3 2 3 5 8 12 5 8 7 4 3 6 5 10 3 4 5 6 8 4 0 2 4 4 2 2 4 5 4 3 5 6 6 11
12 10 10 9 8 7 7 8 7 8 5 6 10 8 4 1 3 4 6 5 3 5 6 3 4 9 6 3 4 3 2 1 6 13 6 3 7 4 1 5 8 7 4 6 9 1 17
12 9 9 9 8 6 7 8 7 9 6 5 6 6 4 2 4 4 2 4 4 4 3 5 8 8 8 4 3 2 2 3 3 5 6 4 4 2 3 5 6 2 9 5 6 1 7
12 10 8 8 8 6 6 7 7 6 4 6 6 6 3 3 7 7 8 4 4 1 1 5 3 5 4 4 3 2 3 2 3 3 3 3 3 3 4 3 4 11 11 4 8 2 10
12 10 8 8 8 6 5 6 6 6 4 4 4 4 10 4 6 26 31 31 27 23 3 4 4 4 3 2 1 1 3 3 5 2 3 2 2 4 5 4 8 6 3 5 12 7 8
Wind_Direction
6 5 2 1 2 2 1 0 359 358 356 355 353 351 349 345 343 341 339 338 340 337 330 323 324 329 341 5 250 224 302 310 266 259 251 283 310 253 292 322 329 332 266 152 156 156 148
357 357 356 354 355 356 356 356 353 351 349 349 349 348 346 343 340 336 334 333 335 332 325 320 325 330 18 263 266 259 267 270 256 258 248 221 238 294 274 284 325 307 300 120 158 162 141
349 348 348 347 348 348 348 348 347 347 344 344 344 344 343 341 337 334 329 327 330 326 316 314 320 352 274 238 229 8 318 259 260 259 259 277 285 164 310 300 326 320 307 327 160 164 153
340 341 340 339 339 342 342 343 343 343 343 340 340 340 339 337 334 332 327 324 325 315 306 311 315 98 247 270 307 287 271 272 272 267 273 288 295 229 209 295 353 344 26 351 139 169 199
339 338 336 333 333 339 339 339 339 340 340 339 336 337 336 335 333 330 325 325 320 295 284 302 346 171 268 303 271 248 245 245 288 291 285 286 8 201 356 35 359 357 320 279 335 192 149
339 339 337 336 337 338 337 337 337 337 337 337 336 335 333 332 332 330 323 328 345 134 215 304 268 342 274 268 260 234 235 247 274 338 350 18 45 18 359 62 249 307 309 322 344 339 168
338 337 336 337 335 335 334 335 336 336 336 336 335 334 331 329 330 330 327 349 9 15 191 207 210 241 287 286 316 230 224 198 18 57 207 296 79 234 245 237 238 279 257 318 278 292 137
331 333 334 335 333 335 336 335 336 336 337 336 335 334 331 328 330 327 356 354 242 322 299 227 236 237 254 290 317 300 190 142 137 226 221 357 230 237 238 263 268 290 261 328 321 288 162
327 328 330 330 333 333 336 337 336 335 334 335 335 336 333 330 330 36 326 283 341 346 278 283 210 223 230 147 223 249 132 164 164 225 235 177 242 232 238 262 267 266 276 282 308 306 306
325 325 327 328 328 328 328 329 330 330 330 331 333 335 335 335 18 332 300 330 333 352 31 278 227 244 183 175 287 216 183 145 160 195 235 227 251 247 250 252 222 255 206 169 199 302 235
319 319 322 323 325 325 325 326 327 328 329 329 329 331 332 340 305 308 318 331 338 60 359 157 201 170 149 161 237 337 149 105 190 205 128 244 233 234 241 244 191 246 212 210 259 251 70
320 319 320 322 320 321 324 327 328 330 329 327 326 325 327 332 303 286 325 332 357 49 264 276 151 166 111 234 259 357 132 103 188 196 209 231 278 184 230 252 190 237 214 46 25 92 63
319 318 316 314 318 320 320 322 325 326 327 325 322 316 313 295 247 293 324 2 45 162 318 32 210 151 163 200 254 162 208 191 181 166 303 308 277 271 230 261 277 132 67 21 356 356 220
326 325 324 321 315 319 320 322 324 325 327 326 321 315 304 276 274 295 344 60 212 259 247 302 15 144 176 175 234 207 170 214 248 118 115 214 301 192 230 182 212 186 153 149 214 211 239
338 337 337 337 335 330 328 328 327 327 329 330 323 319 290 274 216 185 76 100 215 228 346 354 325 143 275 226 188 136 205 203 216 169 173 181 261 305 279 241 143 246 124 182 105 345 78
331 331 331 333 336 336 334 337 333 333 331 335 322 313 272 201 164 139 78 231 251 289 344 353 316 66 131 32 267 176 191 204 222 195 162 223 284 246 285 1 273 160 169 109 358 129 15
327 329 331 330 331 332 338 342 339 340 336 340 321 337 323 151 144 58 166 234 290 295 327 356 301 275 272 302 143 251 236 253 212 216 169 156 146 271 134 195 246 322 139 72 124 138 162
326 326 328 329 329 333 336 344 343 348 349 5 341 336 147 153 80 190 195 212 289 290 296 272 257 228 268 307 308 272 219 215 203 176 183 197 170 229 221 253 227 205 190 151 127 237 182
319 322 326 326 327 331 336 342 345 352 5 345 327 268 268 192 161 248 290 290 260 277 278 289 294 284 275 288 337 235 294 359 29 171 179 175 225 265 313 346 359 336 134 122 58 70 192
306 318 323 325 326 329 333 338 344 350 355 358 325 340 315 58 100 159 328 288 274 269 279 268 265 267 359 343 174 312 336 325 334 349 295 107 131 164 221 219 200 258 299 114 80 98 223
298 304 312 323 323 325 330 335 343 344 346 350 216 263 6 323 326 320 273 271 294 288 286 336 300 226 235 288 352 325 325 324 6 349 28 51 164 162 208 215 244 267 232 266 141 175 122
299 302 306 318 318 321 326 329 339 340 342 48 286 21 340 290 283 300 244 298 324 330 33 335 345 312 241 190 185 220 86 46 327 345 2 7 315 201 207 192 211 268 282 306 287 273 211
295 300 301 308 317 315 318 323 334 339 357 325 331 336 102 281 323 12 331 322 329 358 277 3 313 310 322 315 186 197 195 202 144 46 359 355 60 15 281 286 305 335 236 240 252 25 164
291 296 296 300 307 311 310 313 322 321 352 323 301 311 10 283 330 349 321 334 346 330 266 317 357 19 331 318 19 60 54 295 17 104 194 262 132 152 246 26 215 235 288 174 186 241 242
287 289 293 298 295 302 300 299 301 301 293 296 280 318 343 289 342 302 345 312 322 319 335 311 337 274 290 350 28 4 359 1 331 250 235 203 112 358 167 195 264 282 258 202 106 313 338
277 280 286 289 288 292 292 290 288 298 262 285 288 282 265 329 236 340 311 320 351 324 326 294 319 300 31 109 69 73 86 307 317 323 167 108 102 130 56 225 209 236 298 23 88 282 352
270 271 278 281 278 284 283 283 279 291 244 267 266 314 285 268 271 37 294 315 343 332 280 321 323 341 31 18 84 124 210 159 268 309 329 332 48 46 261 243 285 31 313 287 106 333 312
258 266 268 272 272 277 273 274 276 276 235 237 265 313 286 259 283 261 275 293 325 282 355 294 359 353 34 57 101 209 146 198 319 275 304 349 58 351 333 307 235 356 327 234 136 138 92
252 258 259 259 263 258 265 267 276 243 248 240 272 287 317 228 259 298 287 267 248 248 322 311 212 212 140 102 309 163 199 154 160 292 337 154 182 186 170 229 259 303 214 317 118 189 141